Погода в Станиславчике

Украина / Львовская область     50°10′14″N   24°54′47″E
темп.,
°C
ветер,
м/с
пор.,
м/с
влажн.,
%
обл.,
%
осадки,
мм/ч
давл.,
гПа
погр.,
м
21 января, пт
пт2123:00−3з8147582 0.0 10081100
02:00−3з91584100 0.3 10091134
05:00−3з91475100 0.1 10101136
08:00−4з101680100 0.1 10101004
11:00−3з101786100 0.1 10111059
14:00−2з10158397 0.4 10111189
17:00−3з9158398 0.1 1011989
20:00−3з91592100 0.3 10121049
22 января, сб
сб2223:00−3зсз81389100 0.6 1012917
02:00−4з7139296 0.8 1012879
05:00−4з7128799 0.2 1012648
08:00−5з71494100 0.4 1012745
11:00−3зсз71294100 1.4 1013926
14:00−2ссз6108251 1.9 10151030
17:00−4сз51186100 0.1 1018412
20:00−4сз61194100 0.2 1020711
23 января, вс
вс2323:00−4сз71291100 0.3 1020795
02:00−4сз71194100 0.7 1021915
05:00−5ссз6129099 0.2 1023695
08:00−6ссз51093100 0.3 1025628
11:00−5с5780100 0.1 1027860
14:00−4с5779100 0.2 1028963
17:00−6с478799 0.1 1030254
20:00−8с3795100 0.1 1032230
24 января, пн
пн2423:00−9ссв269758 0.0 1034148
02:00−11св129764 0.1 103536
05:00−12сз119882 0.0 103611
08:00−12сз119874 0.1 103710
11:00−9зсз118870 0.0 1038181
14:00−6сз228361 0.0 1036337
17:00−9зсз11945 0.0 103610
20:00−11зюз119626 0.0 103612
25 января, вт
вт2523:00−11юз239732 0.0 103638
02:00−12юз239699 0.0 103555
05:00−11юз3592100 0.0 103395
08:00−11юз3690100 0.0 1031118
11:00−7юз4792100 0.3 1030217
14:00−3зюз5994100 0.7 1026361
17:00−2з41197100 0.7 1025364
20:00−1зсз51097100 1.5 1024511